Flag for Canada Weather past 2 weeks in Thunder Bay, Ontario, Canada

52 °F

Partly sunny.

Feels Like: 49 °F
Forecast: 41 / 54 °F
Wind: 9 mph from East

Location: Thunder Bay

Current Time: Oct 4, 2015 at 1:02:07 PM

Latest Report: Oct 4, 2015 at 12:00 PM

Visibility: 20 mi

Pressure: 30.40 "Hg

Humidity: 72%

Dew point: 43 °F

Location of Thunder BayLocation

Historic Weather in Thunder Bay — Graph


Thunder Bay temperature yesterday

Maximum temperature yesterday: 52 °F (at 11:00 AM)
Minimum temperature yesterday: 28 °F (at 6:00 AM)
Average temperature yesterday: 43 °F

Past Weeks' High & Low Weather Summary

High77 °F (Sep 27, 3:00 PM)100% (Sep 20, 5:00 AM)30.73 "Hg (Sep 20, 5:00 AM)
Low28 °F (Oct 2, 4:00 AM)29% (Sep 29, 5:00 PM)29.77 "Hg (Sep 27, 7:00 PM)
Average53 °F78%30.25 "Hg
* Reported Sep 19 12:00 Noon — Oct 4 12:00 Noon, Thunder Bay, Weather by CustomWeather, © 2015

Note: Actual official high and low records may vary slightly from our data, if they occured in-between our weather recording intervals... More about our weather records


Thunder Bay weather history for previous 24 hours

Time TempWeatherWind HumidityBarometerVisibility
12:00 PM
Sun, Oct 4
52 °FPartly sunny.9 mph72%30.40 "Hg20 mi
11:00 AM50 °FPartly sunny.10 mph76%30.40 "Hg20 mi
10:00 AM48 °FPartly sunny.No wind76%30.41 "Hg20 mi
9:00 AM37 °FPartly sunny.3 mph100%30.42 "Hg20 mi
8:00 AM37 °FPassing clouds.2 mph100%30.41 "Hg20 mi
7:00 AM39 °FPassing clouds.2 mph93%30.41 "Hg15 mi
6:00 AM43 °FPassing clouds.2 mph87%30.40 "Hg15 mi
5:00 AM41 °FOvercast.3 mph93%30.41 "Hg15 mi
4:00 AM43 °FOvercast.2 mph87%30.41 "Hg15 mi
3:00 AM41 °FOvercast.3 mph87%30.42 "Hg15 mi
2:00 AM43 °FPassing clouds.6 mph76%30.43 "Hg15 mi
1:00 AM45 °FPassing clouds.7 mph71%30.45 "Hg15 mi
12:00 AM46 °FPassing clouds.7 mph66%30.47 "Hg15 mi
11:00 PM
Sat, Oct 3
46 °FPassing clouds.10 mph62%30.49 "Hg15 mi
10:00 PM48 °FPassing clouds.15 mph62%30.48 "Hg15 mi
9:00 PM48 °FPassing clouds.14 mph58%30.48 "Hg15 mi
8:00 PM48 °FPartly sunny.15 mph62%30.50 "Hg20 mi
7:00 PM48 °FPartly sunny.16 mph62%30.52 "Hg20 mi
6:00 PM48 °FPartly sunny.17 mph62%30.53 "Hg20 mi
5:00 PM50 °FPartly sunny.18 mph58%30.53 "Hg20 mi
4:00 PM52 °FBroken clouds.21 mph58%30.53 "Hg20 mi
3:00 PM52 °FBroken clouds.22 mph58%30.55 "Hg20 mi
2:00 PM52 °FMore clouds than sun.18 mph58%30.59 "Hg20 mi
1:00 PM52 °FBroken clouds.16 mph62%30.60 "Hg20 mi
Weather by CustomWeather, © 2015

See weather overviewHow to use our weather pages